RH
37 38 39 42 47 50 48 45 45 41 39 37 35 35 36 37 39 41 42 42 41 41 41 42 43 43 44 43 42 41 40 38 37 38 39 39 40 40 40 42 43 44
33 35 36 37 40 45 46 46 45 43 41 40 36 34 33 33 35 38 39 41 41 41 42 43 43 43 44 44 42 40 37 35 34 34 35 36 37 38 38 40 41 42
31 32 34 35 37 40 41 43 45 43 41 42 40 38 36 34 34 34 36 38 39 40 41 42 41 42 43 44 42 39 36 34 33 32 33 34 35 36 35 37 40 41
30 30 32 33 34 37 39 40 42 42 41 42 42 41 41 40 37 36 36 37 38 39 39 39 39 41 42 43 44 41 38 36 35 33 32 32 33 34 34 35 38 40
29 30 31 31 31 33 37 38 39 39 39 40 41 42 44 45 44 42 40 38 38 39 40 40 39 39 39 39 40 41 40 39 39 36 34 32 32 33 33 34 37 39
28 29 30 30 29 29 32 35 36 37 37 37 40 41 43 45 46 47 46 42 40 38 38 38 38 37 37 36 36 37 37 38 38 37 36 35 34 33 33 33 35 36
27 28 29 30 30 29 29 31 33 35 36 37 39 41 42 42 43 45 46 46 44 41 38 36 36 35 35 35 35 35 36 36 37 37 37 37 37 37 35 33 33 34
27 27 28 29 30 29 29 29 30 32 35 37 38 40 41 42 41 41 42 44 44 42 39 36 34 33 33 34 33 33 35 36 37 37 37 38 40 41 40 37 34 33
28 27 28 28 29 29 29 29 29 30 32 35 38 39 39 40 41 41 41 41 41 38 36 35 33 31 30 30 30 30 31 34 34 35 36 40 42 42 41 40 38 36
28 28 28 27 28 28 28 27 28 29 30 32 35 37 37 36 38 39 40 40 38 35 32 32 33 32 29 28 28 27 28 29 30 31 33 37 40 42 43 42 40 38
30 29 27 27 26 27 27 27 26 26 27 29 32 36 38 37 37 37 38 38 37 34 33 33 33 33 31 29 27 27 27 27 27 27 28 31 33 37 41 43 41 38
31 30 28 28 27 26 26 27 26 26 25 27 29 33 37 39 39 37 36 35 35 34 33 33 34 34 33 31 28 27 27 27 26 26 26 27 28 30 33 36 37 36
37 33 28 27 28 27 26 25 25 25 24 25 27 32 36 39 40 38 36 33 32 32 32 32 32 32 32 31 29 28 27 27 26 26 25 25 26 27 27 29 30 32
54 47 38 34 31 29 28 26 25 25 25 23 24 28 33 37 38 38 37 35 33 31 31 30 30 30 29 29 29 28 27 26 25 24 24 23 24 25 26 27 28 29
69 64 61 57 47 35 30 28 28 29 30 26 22 22 26 33 37 37 37 36 35 32 31 30 29 28 28 28 29 29 28 27 26 24 22 21 20 21 23 25 26 27
76 73 73 73 66 52 41 33 30 33 35 31 26 22 21 26 32 35 36 36 34 33 31 31 29 28 28 28 29 29 29 29 28 26 24 22 19 18 19 20 22 24
81 80 79 79 79 74 64 52 44 42 42 38 33 26 23 23 27 31 34 33 32 31 30 29 29 28 28 28 28 29 29 28 28 27 26 24 22 20 18 18 18 19
83 83 83 82 81 81 78 71 66 62 58 54 46 37 30 27 27 29 31 31 30 30 29 28 28 28 29 29 28 27 27 27 27 26 26 25 24 23 21 20 18 17
88 87 86 84 82 81 79 79 78 74 70 68 63 53 44 37 33 31 31 30 29 28 28 28 28 29 30 30 30 28 27 27 26 26 26 25 25 24 24 23 22 20
91 91 90 88 87 85 84 83 82 79 76 75 72 67 62 56 49 41 35 32 31 30 30 30 29 29 30 30 30 30 28 28 27 26 27 26 26 26 25 24 23 22
89 91 91 91 90 90 89 88 86 84 83 81 78 74 72 69 65 58 50 43 40 37 36 36 34 32 30 30 29 29 29 29 28 27 27 26 26 26 25 24 23 22
83 84 87 90 91 90 90 89 88 87 86 85 83 81 77 72 72 72 66 57 50 46 44 44 43 40 36 33 31 30 30 30 29 28 27 26 26 26 25 24 23 23
79 78 80 84 88 89 89 89 88 87 85 85 85 84 81 77 77 79 76 68 60 56 53 52 50 47 43 40 37 35 33 32 31 29 29 27 26 26 25 25 24 23
75 75 76 78 83 86 87 87 87 86 84 85 85 84 82 79 80 83 83 77 71 66 63 60 57 54 49 45 43 41 39 38 36 33 31 29 28 27 27 27 26 25
63 67 70 73 77 80 79 77 79 80 81 82 85 86 85 82 83 85 86 83 79 75 72 69 66 63 58 54 51 48 45 43 42 40 36 34 32 31 31 31 31 29
49 53 57 60 64 66 65 66 70 74 76 78 81 85 87 87 87 89 88 86 85 84 81 78 75 71 68 64 62 60 57 53 51 48 45 42 40 38 37 37 36 34